默认 日期 大小 文件数 浏览量 最新下载 xml
andromeda磁力链接相关资源由用户搜索指令自动获取,结果来源于网络,本站不存储任何资料,亦不承担任何责任,请于24小时内删除,搜索到1813个磁力,用时2ms。
    {"Tumannost-Andromedy.avi": 733978950, "Tumannost-Andromedy.sub": 31945}
创建时间: 2021-08-06 22:09:43 大小:700.01 MB 文件数量:2 热度:6 最近下载:2025-01-09 14:40:03
    {"02 orion.mp3": 8066697, "05 ulysse.mp3": 17901277, "04 algieba.mp3": 28257260, "06 andromeda.mp3": 32638518, "03 cassiopée.mp3": 33493244, "01 little step.mp3": 7886975, "Alexandra Grimal - Andromeda (2012).jpg": 10868}
创建时间: 2021-08-07 19:30:40 大小:122.31 MB 文件数量:7 热度:2 最近下载:2025-01-04 16:44:05
    ... ": 2322, "Andromeda - Artwork": {"Andromeda - Back.jpg": 1364435, "Andromeda - Front.jpg": 1107944}, "Andromeda - Andromeda - 01 - Too ... Old - 5.00.mp3": 9613411, "Andromeda - Andromeda ...
创建时间: 2021-08-08 09:12:19 大小:141.87 MB 文件数量:19 热度:2 最近下载:2025-02-24 10:45:02
    {"Info.nfo": 413, "Setup.zip": 13139371}
创建时间: 2021-08-08 14:10:10 大小:12.53 MB 文件数量:2 热度:2 最近下载:2025-01-23 05:29:02
    {"Info.nfo": 413, "Setup.zip": 12612399}
创建时间: 2021-08-09 12:13:48 大小:12.03 MB 文件数量:2 热度:2 最近下载:2025-01-02 12:54:13
    {"M4SS3FF3CT4NDR0M3D4 ZonaLeRoS.part01.rar": 4294967296, "M4SS3FF3CT4NDR0M3D4 ZonaLeRoS.part02.rar": 4294967296, "M4SS3FF3CT4NDR0M3D4 ZonaLeRoS.part03.rar": 4294967296, "M4SS3FF3CT4NDR0M3D4 ZonaLeRoS.part04.rar": 4294967296, "M4SS3FF3CT4NDR0M3D4 ZonaLeRoS. ...
创建时间: 2021-08-09 23:33:17 大小:89.42 GB 文件数量:24 热度:5 最近下载:2025-01-25 16:01:47
    ... , "05. Aurora.mp3": 10124078, "02. Andromeda.mp3": 14124998, "07. Singularity.mp3 ...
创建时间: 2021-08-15 22:28:54 大小:100.68 MB 文件数量:10 热度:9 最近下载:2025-01-09 07:52:04
    ... Reconstruction.russian.srt": 213982, "The Andromeda Breakthrough [1962] E05 - Hurricane. ... Gale Warning.mkv": 515392597, "The Andromeda Breakthrough [1962] E04 - Storm ... Centres.mkv": 516261855, "The Andromeda Breakthrough [1962] E03 - Azaran Forecast ...
创建时间: 2021-08-22 16:26:21 大小:3.99 GB 文件数量:15 热度:7 最近下载:2025-09-18 18:13:08
    ... mkv": 1385223557, "A for Andromeda (John Strickland, 2006).dutch. ... srt": 104983, "A for Andromeda (John Strickland, 2006).spanish ... srt": 69409, "A for Andromeda (John Strickland, 2006).serbian- ... srt": 67159, "A for Andromeda (John Strickland, 2006).portuguese- ...
创建时间: 2021-08-22 16:43:00 大小:1.29 GB 文件数量:8 热度:10 最近下载:2025-01-20 15:08:01
    ... russian.srt": 63514}, "A come Andromeda [1972] Puntata 1.mkv": 836098552 ... , "A come Andromeda [1972] Puntata 2.mkv": ... 888174997, "A come Andromeda [1972] Puntata 3.mkv": ... 868649739, "A come Andromeda [1972] Puntata 4.mkv": ...
创建时间: 2021-08-22 22:00:03 大小:3.99 GB 文件数量:15 热度:6 最近下载:2025-03-25 06:47:02
    {"01-maksim_dark-andromeda.mp3": 17286835, "00-maksim_dark-andromeda-(da072)-single-web-2021.m3u": 29, "00-maksim_dark-andromeda-(da072)-single-web-2021.nfo": 388, "00-maksim_dark-andromeda-(da072)-single-web-2021.sfv": 39}
创建时间: 2021-08-24 09:51:45 大小:16.49 MB 文件数量:4 热度:4 最近下载:2025-01-04 20:32:03
    {"01. Kinetica & Mike Sanders - Andromeda (Original Mix).mp3": 18058809, "02. Kinetica & Mike Sanders - Andromeda (Dreamy Remix).mp3": 16825422}
创建时间: 2021-08-28 17:49:39 大小:33.27 MB 文件数量:2 热度:4 最近下载:2025-01-02 12:51:10
    {"MEf5fectAnd5romed8aDel3uxe-1.10-elamigos.part01.rar": 1072693248, "MEf5fectAnd5romed8aDel3uxe-1.10-elamigos.part02.rar": 1072693248, "MEf5fectAnd5romed8aDel3uxe-1.10-elamigos.part03.rar": 1072693248, "MEf5fectAnd5romed8aDel3uxe-1.10-elamigos.part04.rar": ...
创建时间: 2021-09-16 05:31:20 大小:43.3 GB 文件数量:44 热度:7 最近下载:2025-03-28 07:41:02
    {"m34ndr0m3d4 ZonaLeRoS.part01.rar": 4294967296, "m34ndr0m3d4 ZonaLeRoS.part02.rar": 4294967296, "m34ndr0m3d4 ZonaLeRoS.part03.rar": 4294967296, "m34ndr0m3d4 ZonaLeRoS.part04.rar": 4294967296, "m34ndr0m3d4 ZonaLeRoS.part05.rar": 4294967296, "m34ndr0m3d4 ...
创建时间: 2021-09-17 17:18:53 大小:44.63 GB 文件数量:12 热度:7 最近下载:2025-01-20 15:03:01
    {"wine": {"bin": {"wmc": 71776, "wrc": 225256, "widl": 500264, "wine": 9560, "msidb": 1993, "wine64": 10216, "msiexec": 1993, "notepad": 1993, "regedit": 1993, "winecfg": 1993, "winecpp": 47160, "winedbg": 1993, "wineg++": 47160, "winegcc": 47160, " ...
创建时间: 2021-09-22 08:35:25 大小:48.23 GB 文件数量:3355 热度:5 最近下载:2025-02-08 22:19:05
    {"Sensations.sfv": 1038, "08 - Coketail.wav": 73391852, "08 - Coketail.flac": 47262867, "10 - Atmonizer.wav": 94464044, "01 - Sensations.wav": 72072380, "10 - Atmonizer.flac": 61139179, "01 - Sensations.flac": 45491180, "04 - The Dreamer.wav": 82047212, " ...
创建时间: 2021-09-24 07:30:05 大小:1.2 GB 文件数量:21 热度:3 最近下载:2025-01-07 05:24:02
    {"02-konte-sonata.mp3": 19370361, "03-konte-startrip.mp3": 19110182, "01-konte-andromeda.mp3": 15495880, "00-konte-andromeda-(fa112)-web-2021.m3u": 65, "00-konte-andromeda-(fa112)-web-2021.nfo": 477, "00-konte-andromeda-(fa112)-web-2021.sfv": 95}
创建时间: 2021-09-30 15:17:34 大小:51.48 MB 文件数量:6 热度:2 最近下载:2025-02-15 14:56:05
    ... Fiction (2019).mkv": 330145168, "The Andromeda Strain - Making the Film (2001 ... ).mkv": 148181190}, "The Andromeda Strain (1971) RM4K (1080p BluRay ...
创建时间: 2021-10-03 05:46:25 大小:7.41 GB 文件数量:10 热度:9 最近下载:2025-05-13 10:25:02
    ... DVDRip.Fr.avi": 367079424, "Andromeda.2x21.Renaissance.DVDRip.Fr.avi ... ": 367083520, "Andromeda.2x17.Une.nouvelle.vie.DVDRip ... DVDRip.Fr.avi": 367058944, "Andromeda.2x22.Le.bout.du.tunnel ... .DVDRip.Fr.avi": 367085568, "Andromeda.2x19.Dans.la.gueule.du ...
创建时间: 2021-10-10 07:48:22 大小:3.76 GB 文件数量:11 热度:3 最近下载:2025-01-09 18:05:03
    ... big_room_edit).mp3": 17144729, "00-alberto_santana-andromeda-(spaziosonoro082)-web-2021.m3u": 82 ... , "00-alberto_santana-andromeda-(spaziosonoro082)-web-2021.nfo": 424 ... , "00-alberto_santana-andromeda-(spaziosonoro082)-web-2021.sfv": 102}
创建时间: 2021-10-12 10:41:19 大小:31.66 MB 文件数量:5 热度:4 最近下载:2025-02-09 09:57:04